EN

Hourly Weather Abakumovo

Today, 1 December, Tuesday

Time Temperature Precipitation Wind Pressure Humidity
00:00 -4°C° 0 mm 3 mps 751 mmHg 89%
01:00 -4°C° 0 mm 3 mps 751 mmHg 89%
02:00 -3°C° 0 mm 2 mps 751 mmHg 90%
03:00 -4°C° 0 mm 3 mps 751 mmHg 89%
04:00 -4°C° 0 mm 3 mps 751 mmHg 88%
05:00 -4°C° 0 mm 3 mps 751 mmHg 86%
06:00 -5°C° 0 mm 3 mps 752 mmHg 87%
07:00 -5°C° 0 mm 3 mps 752 mmHg 88%
08:00 -5°C° 0 mm 3 mps 752 mmHg 89%
09:00 -5°C° 0 mm 3 mps 752 mmHg 86%
10:00 -4°C° 0 mm 3 mps 753 mmHg 83%
11:00 -4°C° 0 mm 3 mps 753 mmHg 81%
12:00 -4°C° 0 mm 3 mps 753 mmHg 80%
13:00 -4°C° 0 mm 3 mps 754 mmHg 79%
14:00 -2°C° 0 mm 2 mps 754 mmHg 79%
15:00 -3°C° 0 mm 2 mps 754 mmHg 81%
16:00 -3°C° 0 mm 2 mps 755 mmHg 83%
17:00 -3°C° 0 mm 2 mps 755 mmHg 85%
18:00 -3°C° 0 mm 2 mps 755 mmHg 88%
19:00 -4°C° 0 mm 2 mps 756 mmHg 90%
20:00 -4°C° 0 mm 2 mps 756 mmHg 93%
21:00 -5°C° 0 mm 2 mps 756 mmHg 93%
22:00 -5°C° 0 mm 2 mps 756 mmHg 93%
23:00 -5°C° 0 mm 2 mps 756 mmHg 94%

Tomorrow, 2 December, Wednesday

Time Temperature Precipitation Wind Pressure Humidity
00:00 -5°C° 0 mm 2 mps 757 mmHg 94%
01:00 -5°C° 0 mm 2 mps 757 mmHg 93%
02:00 -5°C° 0 mm 2 mps 757 mmHg 93%
03:00 -5°C° 0 mm 2 mps 757 mmHg 92%
04:00 -2°C° 0 mm 1 mps 757 mmHg 91%
05:00 -2°C° 0 mm 1 mps 757 mmHg 90%
06:00 -2°C° 0 mm 1 mps 757 mmHg 90%
07:00 -4°C° 0 mm 2 mps 758 mmHg 90%
08:00 -4°C° 0 mm 2 mps 758 mmHg 90%
09:00 -4°C° 0 mm 2 mps 758 mmHg 89%
10:00 -2°C° 0 mm 1 mps 758 mmHg 88%
11:00 -1°C° 0 mm 1 mps 758 mmHg 86%
12:00 -2°C° 0 mm 1 mps 758 mmHg 87%
13:00 -2°C° 0 mm 1 mps 758 mmHg 89%
14:00 -2°C° 0 mm 1 mps 758 mmHg 90%
15:00 -3°C° 0 mm 1 mps 758 mmHg 91%
16:00 -3°C° 0 mm 1 mps 758 mmHg 93%
17:00 -6°C° 0 mm 2 mps 758 mmHg 94%
18:00 -5°C° 0 mm 2 mps 758 mmHg 94%
19:00 -5°C° 0 mm 2 mps 758 mmHg 94%
20:00 -5°C° 0 mm 2 mps 758 mmHg 93%
21:00 -4°C° 0 mm 2 mps 757 mmHg 92%
22:00 -4°C° 0 mm 2 mps 757 mmHg 90%
23:00 -5°C° 0 mm 3 mps 757 mmHg 88%

Day after tomorrow, 3 December, Thursday

Time Temperature Precipitation Wind Pressure Humidity
00:00 -4°C° 0 mm 2 mps 757 mmHg 89%
01:00 -5°C° 0 mm 2 mps 757 mmHg 90%
02:00 -6°C° 0 mm 2 mps 757 mmHg 92%
03:00 -6°C° 0 mm 2 mps 757 mmHg 91%
04:00 -7°C° 0 mm 2 mps 756 mmHg 91%
05:00 -7°C° 0 mm 2 mps 756 mmHg 91%
06:00 -7°C° 0 mm 2 mps 756 mmHg 90%
07:00 -7°C° 0 mm 2 mps 756 mmHg 90%
08:00 -9°C° 0 mm 3 mps 756 mmHg 89%
09:00 -8°C° 0 mm 3 mps 756 mmHg 87%
10:00 -8°C° 0 mm 3 mps 756 mmHg 84%
11:00 -7°C° 0 mm 3 mps 755 mmHg 82%
12:00 -7°C° 0 mm 3 mps 755 mmHg 83%
13:00 -7°C° 0 mm 3 mps 755 mmHg 83%
14:00 -7°C° 0 mm 3 mps 755 mmHg 84%
15:00 -8°C° 0 mm 3 mps 755 mmHg 86%
16:00 -8°C° 0 mm 3 mps 755 mmHg 88%
17:00 -8°C° 0 mm 3 mps 755 mmHg 90%
18:00 -8°C° 0 mm 3 mps 754 mmHg 90%
19:00 -8°C° 0 mm 3 mps 754 mmHg 90%
20:00 -8°C° 0 mm 3 mps 754 mmHg 90%
21:00 -8°C° 0 mm 3 mps 754 mmHg 91%
22:00 -8°C° 0 mm 3 mps 754 mmHg 91%
23:00 -8°C° 0 mm 3 mps 754 mmHg 91%

4 December, Friday

Time Temperature Precipitation Wind Pressure Humidity
00:00 -8°C° 0 mm 3 mps 754 mmHg 91%
01:00 -8°C° 0 mm 3 mps 754 mmHg 91%
02:00 -8°C° 0 mm 3 mps 754 mmHg 90%
03:00 -8°C° 0 mm 3 mps 754 mmHg 90%
04:00 -8°C° 0 mm 3 mps 754 mmHg 90%
05:00 -8°C° 0 mm 3 mps 754 mmHg 90%
06:00 -8°C° 0 mm 3 mps 754 mmHg 91%
07:00 -8°C° 0 mm 3 mps 754 mmHg 91%
08:00 -8°C° 0 mm 3 mps 754 mmHg 92%
09:00 -8°C° 0 mm 3 mps 754 mmHg 90%
10:00 -8°C° 0 mm 3 mps 754 mmHg 88%
11:00 -7°C° 0 mm 3 mps 755 mmHg 86%
12:00 -7°C° 0 mm 3 mps 755 mmHg 86%
13:00 -7°C° 0 mm 3 mps 755 mmHg 86%
14:00 -7°C° 0 mm 3 mps 755 mmHg 85%
15:00 -7°C° 0 mm 3 mps 755 mmHg 86%
16:00 -7°C° 0 mm 3 mps 755 mmHg 87%
17:00 -7°C° 0 mm 3 mps 755 mmHg 89%
18:00 -7°C° 0 mm 3 mps 755 mmHg 89%
19:00 -7°C° 0 mm 3 mps 755 mmHg 89%
20:00 -7°C° 0 mm 3 mps 755 mmHg 89%
21:00 -7°C° 0 mm 3 mps 755 mmHg 90%
22:00 -7°C° 0 mm 3 mps 755 mmHg 90%
23:00 -7°C° 0 mm 3 mps 755 mmHg 91%

5 December, Saturday

Time Temperature Precipitation Wind Pressure Humidity
00:00 -7°C° 0 mm 3 mps 755 mmHg 90%
01:00 -7°C° 0 mm 3 mps 755 mmHg 89%
02:00 -6°C° 0 mm 3 mps 755 mmHg 88%
03:00 -6°C° 0 mm 3 mps 755 mmHg 88%
04:00 -6°C° 0 mm 3 mps 755 mmHg 88%
05:00 -6°C° 0 mm 3 mps 755 mmHg 89%
06:00 -6°C° 0 mm 3 mps 755 mmHg 89%
07:00 -6°C° 0 mm 3 mps 755 mmHg 89%
08:00 -6°C° 0 mm 3 mps 756 mmHg 89%
09:00 -6°C° 0 mm 3 mps 756 mmHg 88%
10:00 -6°C° 0 mm 3 mps 756 mmHg 88%
11:00 -6°C° 0 mm 3 mps 756 mmHg 87%
12:00 -5°C° 0 mm 3 mps 756 mmHg 87%
13:00 -5°C° 0 mm 3 mps 756 mmHg 88%
14:00 -5°C° 0 mm 3 mps 756 mmHg 88%
15:00 -5°C° 0 mm 3 mps 756 mmHg 88%
16:00 -5°C° 0 mm 3 mps 756 mmHg 89%
17:00 -4°C° 0 mm 3 mps 756 mmHg 89%
18:00 -4°C° 0 mm 3 mps 756 mmHg 89%
19:00 -4°C° 0 mm 4 mps 756 mmHg 89%
20:00 -4°C° 0 mm 4 mps 756 mmHg 89%
21:00 -4°C° 0 mm 4 mps 756 mmHg 89%
22:00 -5°C° 0 mm 4 mps 756 mmHg 89%
23:00 -5°C° 0 mm 3 mps 757 mmHg 89%

6 December, Sunday

Time Temperature Precipitation Wind Pressure Humidity
00:00 -5°C° 0 mm 3 mps 757 mmHg 89%
01:00 -5°C° 0 mm 3 mps 757 mmHg 89%
02:00 -6°C° 0 mm 3 mps 757 mmHg 89%
03:00 -6°C° 0 mm 3 mps 756 mmHg 88%
04:00 -6°C° 0 mm 3 mps 756 mmHg 87%
05:00 -7°C° 0 mm 4 mps 756 mmHg 86%
06:00 -7°C° 0 mm 4 mps 756 mmHg 86%
07:00 -7°C° 0 mm 4 mps 756 mmHg 85%
08:00 -7°C° 0 mm 4 mps 756 mmHg 85%
09:00 -5°C° 0 mm 4 mps 756 mmHg 84%
10:00 -5°C° 0 mm 4 mps 757 mmHg 83%
11:00 -5°C° 0 mm 4 mps 757 mmHg 82%
12:00 -5°C° 0 mm 4 mps 757 mmHg 82%
13:00 -4°C° 0 mm 4 mps 757 mmHg 81%
14:00 -4°C° 0 mm 4 mps 757 mmHg 80%
15:00 -5°C° 0 mm 4 mps 757 mmHg 80%
16:00 -5°C° 0 mm 4 mps 757 mmHg 79%
17:00 -7°C° 0 mm 4 mps 757 mmHg 79%
18:00 -7°C° 0 mm 4 mps 757 mmHg 77%
19:00 -7°C° 0 mm 4 mps 757 mmHg 75%
20:00 -7°C° 0 mm 4 mps 757 mmHg 73%
21:00 -8°C° 0 mm 4 mps 757 mmHg 73%
22:00 -8°C° 0 mm 4 mps 757 mmHg 72%
23:00 -8°C° 0 mm 4 mps 758 mmHg 71%
Show more